Date,TemperatureHighF,TemperatureAvgF,TemperatureLowF,DewpointHighF,DewpointAvgF,DewpointLowF,HumidityHigh,HumidityAvg,HumidityLow,PressureMaxIn,PressureMinIn,WindSpeedMaxMPH,WindSpeedAvgMPH,GustSpeedMaxMPH,PrecipitationSumIn
2013-3-1,64.3,61.6,57.9,58.0,52.1,47.0,84,72,60,29.98,29.89,5,1,0,0.00
2013-3-2,65.0,57.6,51.4,49.0,42.9,36.0,76,59,43,30.03,29.95,13,4,0,0.00
2013-3-3,60.6,53.9,49.3,47.0,43.0,40.0,88,68,50,30.14,29.95,8,2,0,0.00
2013-3-4,68.5,53.9,41.7,47.0,37.1,29.0,85,57,26,30.20,30.11,12,2,0,0.00
2013-3-5,77.5,63.0,47.9,58.0,52.8,45.0,93,72,47,30.17,30.07,10,2,0,0.00
2013-3-6,77.5,64.7,52.4,64.0,52.3,31.0,94,68,31,30.09,29.94,15,2,0,0.01
2013-3-7,72.6,58.5,46.1,56.0,45.1,36.0,90,63,40,30.18,30.06,7,2,0,0.00
2013-3-8,76.0,62.5,51.4,54.0,50.7,44.0,93,69,32,30.20,30.09,5,1,0,0.00
2013-3-9,76.1,64.4,53.4,58.0,53.8,50.0,92,70,50,30.18,30.09,8,2,0,0.00
2013-3-10,75.8,69.9,64.0,61.0,56.7,53.0,74,63,52,30.14,30.06,9,3,0,0.00
2013-3-11,78.0,71.8,68.0,63.0,60.8,59.0,78,69,54,30.10,29.95,11,3,0,0.00
2013-3-12,82.3,74.0,69.6,70.0,66.0,62.0,87,76,63,29.99,29.90,11,2,0,0.00
2013-3-13,75.1,65.6,55.9,66.0,54.6,44.0,93,70,35,30.11,29.97,10,2,0,0.00
2013-3-14,71.6,60.7,52.8,54.0,46.8,39.0,89,64,32,30.20,30.08,10,3,0,0.00
2013-3-15,72.8,62.1,51.1,55.0,50.0,45.0,82,66,42,30.25,30.14,5,2,0,0.00
2013-3-16,76.3,64.8,53.1,58.0,54.2,52.0,97,71,45,30.19,30.08,7,2,0,0.00
2013-3-17,77.0,67.6,57.2,62.0,58.7,55.0,94,75,54,30.14,30.02,12,2,0,0.00
2013-3-18,80.5,71.5,64.1,70.0,65.7,61.0,96,82,67,30.06,29.95,12,3,0,0.25
2013-3-19,79.7,72.6,67.6,70.0,67.8,66.0,96,85,66,30.00,29.80,9,1,0,0.00
2013-3-20,87.1,73.1,63.8,70.0,65.4,60.0,98,79,49,29.96,29.80,5,1,0,0.00
2013-3-21,75.1,66.6,57.9,62.0,53.8,39.0,93,67,28,29.94,29.82,6,2,0,0.00
2013-3-22,76.3,67.7,55.2,70.0,60.5,54.0,96,79,58,30.00,29.89,14,3,0,0.01
2013-3-23,88.7,77.7,71.4,75.0,71.9,69.0,97,83,54,29.98,29.79,15,2,0,0.03
2013-3-24,90.4,79.7,72.5,74.0,72.2,67.0,96,79,55,29.88,29.68,9,3,0,0.02
2013-3-25,77.5,73.0,64.4,73.0,60.5,43.0,95,68,37,29.98,29.74,8,2,0,0.01
2013-3-26,65.6,60.0,51.9,45.0,39.3,34.0,68,48,33,30.20,29.98,10,4,0,0.00
2013-3-27,68.6,56.7,44.8,48.0,41.8,35.0,80,59,36,30.25,30.16,9,2,0,0.00
2013-3-28,73.7,59.8,48.4,51.0,45.0,36.0,84,61,31,30.26,30.16,8,2,0,0.00
2013-3-29,74.7,64.4,54.5,54.0,50.2,45.0,76,61,44,30.28,30.19,7,1,0,0.00
2013-3-30,75.9,66.5,55.7,57.0,53.3,47.0,93,65,39,30.26,30.16,6,1,0,0.00
2013-3-31,80.6,70.1,58.6,67.0,61.5,55.0,94,75,56,30.18,30.04,10,3,0,0.00